Durant, OK

5:41 PM CDT on May 26, 2018 (GMT -0500)
Eaker

Weather History for KDUA - October, 2013

Change the Weather History Date:

Monday, October 7, 2013

  Actual Average (KMLC) Record (KMLC)
Temperature  
Mean Temperature 65 °F -  
Max Temperature 80 °F 74 °F 97 °F (1963)
Min Temperature 50 °F 51 °F 35 °F (2000)
Growing Degree Days 15 (Base 50)    
Moisture  
Dew Point 39 °F    
Average Humidity 45    
Maximum Humidity 76    
Minimum Humidity 18    
Precipitation  
Precipitation 0.00 in - - ()
Sea Level Pressure  
Sea Level Pressure 30.12 in    
Wind  
Wind Speed 5 mph (NNW)    
Max Wind Speed 12 mph    
Max Gust Speed -    
Visibility 10 miles    
Events      
Averages and records for this station are not official NWS values.
T = Trace of Precipitation, MM = Missing Value Source: NWS Daily Summary

Daily Weather History Graph

Daily Weather History Graph

Search for Another Location

Airport or City:

Astronomy

Oct. 07, 2013 Rise Set
Actual Time 7:24 AM CDT 7:01 PM CDT
Civil Twilight 6:59 AM CDT 7:26 PM CDT
Nautical Twilight 6:30 AM CDT 7:55 PM CDT
Astronomical Twilight 6:01 AM CDT 8:24 PM CDT
Moon 10:07 AM CDT (10/7) 8:56 PM CDT (10/7)
Length of Visible Light 12h 26m
Length of Day
11h 36m
Waxing Crescent, 9% of the Moon is Illuminated
Oct 7
Waxing Crescent
Oct 11
First Quarter
Oct 18
Full
Oct 26
Last Quarter
Nov 3
New

Hourly Weather History & Observations

Time (CDT) Temp. Dew Point Humidity Pressure Visibility Wind Dir Wind Speed Gust Speed Precip Events Conditions
12:15 AM 51.8 °F 41.0 °F 67% 30.08 in 10.0 mi West 4.6 mph - N/A   Clear
12:35 AM 51.8 °F 39.2 °F 62% 30.08 in 10.0 mi West 4.6 mph - N/A   Clear
12:55 AM 51.8 °F 41.0 °F 67% 30.08 in 10.0 mi West 4.6 mph - N/A   Clear
1:15 AM 53.6 °F 42.8 °F 67% 30.09 in 10.0 mi West 4.6 mph - N/A   Clear
1:35 AM 51.8 °F 41.0 °F 67% 30.09 in 10.0 mi West 3.5 mph - N/A   Clear
1:55 AM 51.8 °F 42.8 °F 71% 30.09 in 10.0 mi West 3.5 mph - N/A   Clear
2:15 AM 51.8 °F 44.6 °F 76% 30.10 in 10.0 mi West 4.6 mph - N/A   Clear
2:35 AM 53.6 °F 41.0 °F 62% 30.09 in 10.0 mi WNW 4.6 mph - N/A   Clear
2:55 AM 55.4 °F 42.8 °F 63% 30.09 in 10.0 mi West 4.6 mph - N/A   Clear
3:15 AM 53.6 °F 42.8 °F 67% 30.09 in 10.0 mi WNW 4.6 mph - N/A   Clear
3:35 AM 53.6 °F 41.0 °F 62% 30.09 in 10.0 mi West 4.6 mph - N/A   Clear
3:55 AM 53.6 °F 42.8 °F 67% 30.09 in 10.0 mi WNW 6.9 mph - N/A   Clear
4:15 AM 55.4 °F 42.8 °F 63% 30.09 in 10.0 mi WNW 6.9 mph - N/A   Clear
4:35 AM 55.4 °F 42.8 °F 63% 30.10 in 10.0 mi WNW 8.1 mph - N/A   Clear
4:55 AM 55.4 °F 42.8 °F 63% 30.10 in 10.0 mi West 5.8 mph - N/A   Clear
5:15 AM 53.6 °F 41.0 °F 62% 30.10 in 10.0 mi West 4.6 mph - N/A   Clear
5:35 AM 53.6 °F 41.0 °F 62% 30.11 in 10.0 mi WNW 5.8 mph - N/A   Clear
5:55 AM 53.6 °F 41.0 °F 62% 30.11 in 10.0 mi WNW 4.6 mph - N/A   Clear
6:15 AM 53.6 °F 41.0 °F 62% 30.11 in 10.0 mi WNW 6.9 mph - N/A   Clear
6:35 AM 53.6 °F 39.2 °F 58% 30.12 in 10.0 mi NW 4.6 mph - N/A   Clear
6:55 AM 53.6 °F 37.4 °F 54% 30.12 in 10.0 mi NW 5.8 mph - N/A   Clear
7:15 AM 51.8 °F 39.2 °F 62% 30.12 in 10.0 mi NW 5.8 mph - N/A   Clear
7:35 AM 51.8 °F 39.2 °F 62% 30.13 in 10.0 mi NW 4.6 mph - N/A   Clear
7:55 AM 50.0 °F 41.0 °F 71% 30.14 in 10.0 mi NNW 5.8 mph - N/A   Clear
8:15 AM 51.8 °F 42.8 °F 71% 30.15 in 10.0 mi North 5.8 mph - N/A   Clear
8:35 AM 55.4 °F 42.8 °F 63% 30.15 in 10.0 mi North 6.9 mph - N/A   Clear
8:55 AM 59.0 °F 42.8 °F 55% 30.15 in 10.0 mi NNW 8.1 mph - N/A   Clear
9:15 AM 60.8 °F 41.0 °F 48% 30.16 in 10.0 mi North 6.9 mph - N/A   Clear
9:35 AM 64.4 °F 35.6 °F 34% 30.17 in 10.0 mi North 9.2 mph - N/A   Clear
9:55 AM 64.4 °F 35.6 °F 34% 30.17 in 10.0 mi NNE 9.2 mph - N/A   Clear
10:15 AM 64.4 °F 35.6 °F 34% 30.17 in 10.0 mi NNE 10.4 mph - N/A   Clear
10:35 AM 68.0 °F 35.6 °F 30% 30.17 in 10.0 mi North 9.2 mph - N/A   Clear
10:55 AM 69.8 °F 35.6 °F 28% 30.17 in 10.0 mi NNE 6.9 mph - N/A   Clear
11:15 AM 71.6 °F 32.0 °F 23% 30.18 in 10.0 mi NNE 10.4 mph - N/A   Clear
11:35 AM 71.6 °F 32.0 °F 23% 30.18 in 10.0 mi North 8.1 mph - N/A   Clear
11:55 AM 71.6 °F 32.0 °F 23% 30.17 in 10.0 mi NNE 9.2 mph - N/A   Clear
12:15 PM 73.4 °F 32.0 °F 22% 30.17 in 10.0 mi NNW 6.9 mph - N/A   Clear
12:35 PM 73.4 °F 32.0 °F 22% 30.17 in 10.0 mi NNE 5.8 mph - N/A   Clear
12:55 PM 75.2 °F 32.0 °F 21% 30.16 in 10.0 mi North 5.8 mph - N/A   Clear
1:15 PM 77.0 °F 32.0 °F 19% 30.15 in 10.0 mi NNW 9.2 mph - N/A   Clear
1:35 PM 77.0 °F 32.0 °F 19% 30.15 in 10.0 mi North 9.2 mph - N/A   Clear
1:55 PM 77.0 °F 32.0 °F 19% 30.14 in 10.0 mi NNW 8.1 mph - N/A   Clear
2:15 PM 78.8 °F 32.0 °F 18% 30.13 in 10.0 mi NW 5.8 mph - N/A   Clear
2:35 PM 78.8 °F 33.8 °F 20% 30.12 in 10.0 mi NNW 11.5 mph - N/A   Clear
2:55 PM 78.8 °F 33.8 °F 20% 30.12 in 10.0 mi North 5.8 mph - N/A   Clear
3:15 PM 78.8 °F 35.6 °F 21% 30.12 in 10.0 mi NNW 8.1 mph - N/A   Clear
3:35 PM 78.8 °F 35.6 °F 21% 30.11 in 10.0 mi NNW 8.1 mph - N/A   Clear
3:55 PM 78.8 °F 35.6 °F 21% 30.11 in 10.0 mi NE 5.8 mph - N/A   Clear
4:15 PM 78.8 °F 35.6 °F 21% 30.11 in 10.0 mi NNW 4.6 mph - N/A   Clear
4:35 PM 80.6 °F 35.6 °F 20% 30.10 in 10.0 mi NE 6.9 mph - N/A   Clear
4:55 PM 80.6 °F 35.6 °F 20% 30.09 in 10.0 mi NNW 3.5 mph - N/A   Clear
5:15 PM 78.8 °F 35.6 °F 21% 30.09 in 10.0 mi NNW 4.6 mph - N/A   Clear
5:35 PM 78.8 °F 35.6 °F 21% 30.09 in 10.0 mi North 5.8 mph - N/A   Clear
5:55 PM 78.8 °F 35.6 °F 21% 30.09 in 10.0 mi NE 4.6 mph - N/A   Clear
6:15 PM 77.0 °F 37.4 °F 24% 30.09 in 10.0 mi NW 4.6 mph - N/A   Clear
6:35 PM 75.2 °F 39.2 °F 27% 30.09 in 10.0 mi NE 5.8 mph - N/A   Clear
6:55 PM 71.6 °F 41.0 °F 33% 30.09 in 10.0 mi NE 4.6 mph - N/A   Clear
7:15 PM 68.0 °F 42.8 °F 40% 30.09 in 10.0 mi NE 4.6 mph - N/A   Clear
7:35 PM 64.4 °F 41.0 °F 42% 30.09 in 10.0 mi NE 4.6 mph - N/A   Clear
7:55 PM 64.4 °F 39.2 °F 40% 30.10 in 10.0 mi NNE 3.5 mph - N/A   Clear
8:15 PM 64.4 °F 39.2 °F 40% 30.10 in 10.0 mi Calm Calm - N/A   Clear
8:35 PM 64.4 °F 39.2 °F 40% 30.10 in 10.0 mi North 3.5 mph - N/A   Clear
8:55 PM 62.6 °F 41.0 °F 45% 30.11 in 10.0 mi North 4.6 mph - N/A   Clear
9:15 PM 62.6 °F 42.8 °F 48% 30.11 in 10.0 mi NNE 3.5 mph - N/A   Clear
9:35 PM 60.8 °F 44.6 °F 55% 30.12 in 10.0 mi Calm Calm - N/A   Clear
9:55 PM 59.0 °F 42.8 °F 55% 30.12 in 5.0 mi NNE 3.5 mph - N/A   Haze
10:15 PM 59.0 °F 44.6 °F 59% 30.12 in 0.2 mi NE 3.5 mph - N/A   Haze
10:35 PM 57.2 °F 42.8 °F 59% 30.12 in 4.0 mi Calm Calm - N/A   Haze
10:55 PM 59.0 °F 42.8 °F 55% 30.12 in 5.0 mi Calm Calm - N/A   Haze
11:15 PM 57.2 °F 42.8 °F 59% 30.12 in 4.0 mi Calm Calm - N/A   Haze
11:35 PM 55.4 °F 42.8 °F 63% 30.11 in 7.0 mi NE 3.5 mph - N/A   Clear
11:55 PM 55.4 °F 44.6 °F 67% 30.11 in 10.0 mi NE 5.8 mph - N/A   Clear